Location: St. Louis
(38.6270°N, 90.1994°W)
Time: 17:23:08
(UTC-06:00)

Tiros 1 - Pass Details

Date: 01 December 2021
Orbit: 629 x 664 km, 48.4° (Epoch: 26 January)

Event Time Altitude Azimuth Distance (km) Brightness Sun altitude
Rises 19:40:36 0° 247° (WSW) 2,916 11.4 -34.7°
Reaches altitude 10° 19:42:56 10° 251° (WSW) 2,014 10.4 -35.2°
Enters shadow 19:44:28 21° 257° (WSW) 1,446 9.5 -35.5°
